GW6550 Weather Reports


time (UTC)temp
C
wind
direction
speed
KPH
gust
KPH
rain 1hr
cm
rain 24hr
cm
rain mn
cm
humidity
%
barometer
mb
20260901175807 19 296 3.2 4.8 0.00 0.00 0.00 54 1016.7
20260901175307 20 335 3.2 4.8 0.00 0.00 0.00 54 1016.7
20260901174807 20 282 3.2 4.8 0.00 0.00 0.00 53 1016.7
20260901174312 20 331 1.6 3.2 0.00 0.00 0.00 53 1016.6
20260901173808 20 187 3.2 3.2 0.00 0.00 0.00 53 1016.6
20260901173308 20 180 8.0 12.9 0.00 0.00 0.00 51 1016.5
20260901172808 19 287 1.6 3.2 0.00 0.00 0.00 54 1016.6
20260901172308 19 222 3.2 6.4 0.00 0.00 0.00 54 1016.5
20260901171808 19 324 1.6 3.2 0.00 0.00 0.00 53 1016.4
20260901171307 20 188 6.4 8.0 0.00 0.00 0.00 51 1016.5
20260901170810 19 132 3.2 8.0 0.00 0.00 0.00 52 1016.4
20260901170307 18 41 3.2 4.8 0.00 0.00 0.00 54 1016.3
20260901165808 18 159 4.8 8.0 0.00 0.00 0.00 55 1016.3
20260901165307 18 187 4.8 6.4 0.00 0.00 0.00 55 1016.4
20260901164807 18 266 4.8 8.0 0.00 0.00 0.00 57 1016.4
20260901164308 18 239 1.6 3.2 0.00 0.00 0.00 56 1016.3
20260901163808 18 252 3.2 4.8 0.00 0.00 0.00 57 1016.4
20260901163310 18 218 6.4 12.9 0.00 0.00 0.00 56 1016.3
20260901162807 18 238 1.6 3.2 0.00 0.00 0.00 57 1016.3
20260901162308 18 204 3.2 8.0 0.00 0.00 0.00 56 1016.3
20260901161807 18 189 4.8 8.0 0.00 0.00 0.00 56 1016.2
20260901161309 17 183 4.8 8.0 0.00 0.00 0.00 56 1016.3
20260901160807 17 249 1.6 3.2 0.00 0.00 0.00 58 1016.4
20260901160309 17 157 6.4 6.4 0.00 0.00 0.00 58 1016.4
20260901155807 17 201 1.6 1.6 0.00 0.00 0.00 59 1016.3
20260901155308 17 187 1.6 4.8 0.00 0.00 0.00 59 1016.3
20260901154808 17 184 6.4 9.7 0.00 0.00 0.00 59 1016.2
20260901154307 17 203 6.4 9.7 0.00 0.00 0.00 59 1016.1
20260901153807 17 192 6.4 9.7 0.00 0.00 0.00 59 1016.1
20260901153308 17 241 3.2 4.8 0.00 0.00 0.00 60 1016.1
20260901152807 17 285 0.0 3.2 0.00 0.00 0.00 60 1016.1
20260901152308 17 214 3.2 4.8 0.00 0.00 0.00 60 1015.9
20260901151808 17 229 3.2 4.8 0.00 0.00 0.00 60 1015.9
20260901151307 17 224 3.2 4.8 0.00 0.00 0.00 60 1015.9
20260901150811 17 190 4.8 6.4 0.00 0.00 0.00 60 1015.9
20260901150308 17 184 4.8 6.4 0.00 0.00 0.00 61 1016.0
20260901145807 16 203 3.2 4.8 0.00 0.00 0.00 61 1015.9
20260901145308 16 221 1.6 4.8 0.00 0.00 0.00 62 1015.8
20260901144807 16 201 4.8 6.4 0.00 0.00 0.00 62 1015.7
20260901144308 16 210 4.8 6.4 0.00 0.00 0.00 62 1015.7
20260901143808 16 195 6.4 8.0 0.00 0.00 0.00 63 1015.7
20260901143308 16 202 3.2 4.8 0.00 0.00 0.00 63 1015.6
20260901142807 16 218 1.6 3.2 0.00 0.00 0.00 64 1015.5
20260901142308 16 197 6.4 9.7 0.00 0.00 0.00 64 1015.5
20260901141810 16 220 1.6 3.2 0.00 0.00 0.00 64 1015.4
20260901141308 16 212 6.4 9.7 0.00 0.00 0.00 64 1015.3
20260901140811 16 200 1.6 3.2 0.00 0.00 0.00 64 1015.3
20260901140308 16 198 3.2 6.4 0.00 0.00 0.00 64 1015.2
20260901135807 16 208 3.2 6.4 0.00 0.00 0.00 64 1015.1
20260901135308 16 206 3.2 4.8 0.00 0.00 0.00 64 1015.1
20260901134808 16 184 1.6 3.2 0.00 0.00 0.00 64 1015.0
20260901134308 16 183 3.2 6.4 0.00 0.00 0.00 64 1015.0
20260901133808 16 204 3.2 4.8 0.00 0.00 0.00 64 1015.0
20260901133307 16 171 6.4 8.0 0.00 0.00 0.00 64 1014.9
20260901132807 16 198 6.4 8.0 0.00 0.00 0.00 64 1014.9
20260901132308 16 188 4.8 6.4 0.00 0.00 0.00 64 1014.9
20260901131807 16 179 3.2 3.2 0.00 0.00 0.00 64 1014.9
20260901131307 16 191 6.4 8.0 0.00 0.00 0.00 64 1014.9
20260901130808 16 187 3.2 4.8 0.00 0.00 0.00 64 1014.8
20260901130308 16 182 4.8 8.0 0.00 0.00 0.00 64 1014.7
20260901125807 16 200 3.2 6.4 0.00 0.00 0.00 64 1014.8
20260901125309 16 193 3.2 6.4 0.00 0.00 0.00 65 1014.8
20260901124811 16 213 0.0 1.6 0.00 0.00 0.00 65 1014.8
20260901124307 16 216 1.6 3.2 0.00 0.00 0.00 65 1014.7
20260901123808 16 152 3.2 4.8 0.00 0.00 0.00 65 1014.8
20260901123309 16 192 1.6 3.2 0.00 0.00 0.00 66 1014.8
20260901122817 16 201 3.2 4.8 0.00 0.00 0.00 66 1014.7
20260901122309 16 192 4.8 8.0 0.00 0.00 0.00 66 1014.6
20260901121808 16 203 3.2 4.8 0.00 0.00 0.00 66 1014.7
20260901121311 16 197 6.4 9.7 0.00 0.00 0.00 66 1014.6
20260901120807 16 178 3.2 3.2 0.00 0.00 0.00 66 1014.6
20260901120307 16 184 3.2 8.0 0.00 0.00 0.00 66 1014.6
20260901115807 16 158 1.6 3.2 0.00 0.00 0.00 67 1014.6
20260901115309 16 196 3.2 4.8 0.00 0.00 0.00 66 1014.6
20260901114808 16 196 3.2 4.8 0.00 0.00 0.00 67 1014.6
20260901114307 16 135 4.8 6.4 0.00 0.00 0.00 67 1014.6
20260901113808 16 176 3.2 3.2 0.00 0.00 0.00 68 1014.8
20260901113307 16 242 0.0 1.6 0.00 0.00 0.00 69 1014.9
20260901112808 16 202 0.0 1.6 0.00 0.00 0.00 69 1014.9
20260901112307 16 284 1.6 3.2 0.00 0.00 0.00 69 1014.9
20260901111808 16 223 1.6 3.2 0.00 0.00 0.00 70 1014.9
20260901111307 16 282 3.2 4.8 0.00 0.00 0.00 70 1015.0
20260901110807 16 255 0.0 1.6 0.00 0.00 0.00 70 1015.0
20260901110307 16 277 1.6 3.2 0.00 0.00 0.00 70 1014.9
20260901105807 16 294 1.6 4.8 0.00 0.00 0.00 70 1015.0
20260901105307 16 258 0.0 3.2 0.00 0.00 0.00 70 1014.9
20260901104807 16 237 0.0 1.6 0.00 0.00 0.00 69 1014.8
20260901104307 16 226 0.0 3.2 0.00 0.00 0.00 69 1014.8
20260901103807 16 263 1.6 3.2 0.00 0.00 0.00 69 1014.8
20260901103307 16 291 0.0 3.2 0.00 0.00 0.00 70 1014.7
20260901102807 16 269 0.0 3.2 0.00 0.00 0.00 70 1014.7
20260901102308 16 245 0.0 1.6 0.00 0.00 0.00 70 1014.7
20260901101807 16 280 1.6 3.2 0.00 0.00 0.00 70 1014.7
20260901101307 16 269 1.6 3.2 0.00 0.00 0.00 70 1014.6
20260901100807 16 282 0.0 3.2 0.00 0.00 0.00 70 1014.6
20260901100308 16 250 1.6 3.2 0.00 0.00 0.00 70 1014.6
20260901095807 16 226 1.6 3.2 0.00 0.00 0.00 71 1014.5
20260901095308 16 240 1.6 3.2 0.00 0.00 0.00 71 1014.6
20260901094808 16 234 0.0 1.6 0.00 0.00 0.00 71 1014.6
20260901094307 15 279 0.0 1.6 0.00 0.00 0.00 71 1014.5
20260901093807 15 229 3.2 3.2 0.00 0.00 0.00 71 1014.5
20260901093308 15 224 1.6 3.2 0.00 0.00 0.00 71 1014.5
20260901092807 15 213 0.0 1.6 0.00 0.00 0.00 72 1014.5
20260901092309 15 132 0.0 1.6 0.00 0.00 0.00 72 1014.5
20260901091809 15 255 0.0 1.6 0.00 0.00 0.00 72 1014.5
20260901091307 15 205 1.6 3.2 0.00 0.00 0.00 72 1014.5
20260901090808 15 227 0.0 1.6 0.00 0.00 0.00 72 1014.6
20260901090308 15 270 0.0 1.6 0.00 0.00 0.00 72 1014.5
20260901085809 15 223 1.6 3.2 0.00 0.00 0.00 73 1014.5
20260901085308 15 251 0.0 1.6 0.00 0.00 0.00 73 1014.5
20260901084807 15 245 0.0 3.2 0.00 0.00 0.00 73 1014.5
20260901084308 15 226 0.0 1.6 0.00 0.00 0.00 72 1014.5
20260901083808 15 228 0.0 1.6 0.00 0.00 0.00 72 1014.4
20260901083307 15 252 0.0 3.2 0.00 0.00 0.00 72 1014.4
20260901082809 15 254 0.0 1.6 0.00 0.00 0.00 71 1014.4
20260901082308 15 303 0.0 1.6 0.00 0.00 0.00 70 1014.5
20260901081808 15 298 0.0 1.6 0.00 0.00 0.00 70 1014.5
20260901081307 15 269 1.6 3.2 0.00 0.00 0.00 70 1014.6
20260901080809 15 278 3.2 4.8 0.00 0.00 0.00 70 1014.6
20260901080307 15 287 3.2 3.2 0.00 0.00 0.00 70 1014.6
20260901075807 15 291 3.2 4.8 0.00 0.00 0.00 70 1014.6
20260901075308 15 299 0.0 1.6 0.00 0.00 0.00 70 1014.5
20260901074808 15 251 1.6 3.2 0.00 0.00 0.00 70 1014.5
20260901074308 15 303 0.0 3.2 0.00 0.00 0.00 70 1014.4
20260901073808 16 257 1.6 3.2 0.00 0.00 0.00 70 1014.5
20260901073308 16 243 1.6 3.2 0.00 0.00 0.00 70 1014.6
20260901072809 16 245 0.0 6.4 0.00 0.00 0.00 70 1014.6
20260901072309 16 250 1.6 3.2 0.00 0.00 0.00 70 1014.6
20260901071807 16 279 1.6 4.8 0.00 0.00 0.00 70 1014.6
20260901071308 16 249 1.6 4.8 0.00 0.00 0.00 69 1014.6
20260901070807 16 253 1.6 4.8 0.00 0.00 0.00 69 1014.6
20260901070308 16 260 4.8 6.4 0.00 0.00 0.00 69 1014.6
20260901065317 16 284 0.0 3.2 0.00 0.00 0.00 70 1014.5
20260901064808 16 286 1.6 4.8 0.00 0.00 0.00 69 1014.5
20260901064308 16 280 4.8 6.4 0.00 0.00 0.00 69 1014.6
20260901063807 16 278 1.6 1.6 0.00 0.00 0.00 69 1014.6
20260901063307 16 256 3.2 4.8 0.00 0.00 0.00 69 1014.6
20260901062808 16 286 0.0 3.2 0.00 0.00 0.00 69 1014.7
20260901062310 16 205 3.2 4.8 0.00 0.00 0.00 70 1014.7
20260901061808 16 223 3.2 3.2 0.00 0.00 0.00 70 1014.7
20260901061307 16 258 1.6 4.8 0.00 0.00 0.00 70 1014.7
20260901060807 16 271 1.6 3.2 0.00 0.00 0.00 70 1014.7
20260901060308 16 278 4.8 6.4 0.00 0.00 0.00 70 1014.7
20260901055808 16 306 1.6 4.8 0.00 0.00 0.00 70 1014.8
20260901055308 16 279 3.2 6.4 0.00 0.00 0.00 70 1014.8
20260901054807 16 292 4.8 9.7 0.00 0.00 0.00 70 1014.8
20260901054307 16 282 4.8 6.4 0.00 0.00 0.00 70 1014.8
20260901053807 16 291 6.4 11.3 0.00 0.00 0.00 69 1014.8
20260901053307 16 277 3.2 4.8 0.00 0.00 0.00 70 1014.8
20260901052809 16 303 3.2 8.0 0.00 0.00 0.00 70 1014.8
20260901052307 16 294 1.6 4.8 0.00 0.00 0.00 71 1014.7
20260901051808 16 295 3.2 6.4 0.00 0.00 0.00 71 1014.7
20260901051307 16 302 3.2 6.4 0.00 0.00 0.00 71 1014.7
20260901050808 16 294 3.2 6.4 0.00 0.00 0.00 71 1014.7
20260901050308 15 296 4.8 6.4 0.00 0.00 0.00 72 1014.6
20260901045807 15 292 4.8 8.0 0.00 0.00 0.00 72 1014.5
20260901045308 15 282 3.2 4.8 0.00 0.00 0.00 72 1014.5
20260901044808 15 299 6.4 9.7 0.00 0.00 0.00 72 1014.4
20260901044307 15 271 3.2 9.7 0.00 0.00 0.00 72 1014.4
20260901043807 16 300 3.2 8.0 0.00 0.00 0.00 72 1014.3
20260901043307 16 299 4.8 9.7 0.00 0.00 0.00 72 1014.3
20260901042807 16 292 4.8 9.7 0.00 0.00 0.00 71 1014.2
20260901042307 16 308 3.2 6.4 0.00 0.00 0.00 71 1014.3
20260901041808 16 293 6.4 9.7 0.00 0.00 0.00 71 1014.3
20260901041307 16 303 4.8 9.7 0.00 0.00 0.00 71 1014.2
20260901040807 16 272 4.8 6.4 0.00 0.00 0.00 71 1014.2
20260901040308 16 288 3.2 6.4 0.00 0.00 0.00 71 1014.2
20260901035808 16 285 3.2 8.0 0.00 0.00 0.00 71 1014.2
20260901035308 16 304 4.8 8.0 0.00 0.00 0.00 72 1014.1
20260901034807 16 296 8.0 12.9 0.00 0.00 0.00 72 1014.0
20260901034313 16 290 3.2 6.4 0.00 0.00 0.00 73 1014.0
20260901033807 16 288 4.8 8.0 0.00 0.00 0.00 73 1013.9
20260901033307 16 286 8.0 14.5 0.00 0.00 0.00 73 1013.8
20260901032808 16 297 1.6 4.8 0.00 0.00 0.00 72 1013.8
20260901032307 16 294 4.8 9.7 0.00 0.00 0.00 72 1013.7
20260901031808 16 287 11.3 14.5 0.00 0.00 0.00 71 1013.7
20260901031308 16 285 6.4 9.7 0.00 0.00 0.00 71 1013.6
20260901030808 16 301 8.0 12.9 0.00 0.00 0.00 71 1013.6
20260901030308 16 286 4.8 9.7 0.00 0.00 0.00 70 1013.5
20260901025808 16 292 9.7 14.5 0.00 0.00 0.00 70 1013.4
20260901025307 16 280 4.8 12.9 0.00 0.00 0.00 70 1013.4
20260901024808 17 302 4.8 11.3 0.00 0.00 0.00 70 1013.4
20260901024307 17 303 6.4 8.0 0.00 0.00 0.00 69 1013.4
20260901023807 17 292 3.2 8.0 0.00 0.00 0.00 69 1013.4
20260901023307 17 304 6.4 12.9 0.00 0.00 0.00 69 1013.3
20260901022808 17 311 4.8 11.3 0.00 0.00 0.00 69 1013.4
20260901022310 17 315 4.8 6.4 0.00 0.00 0.00 69 1013.3
20260901021808 17 297 6.4 11.3 0.00 0.00 0.00 68 1013.3
20260901021307 17 299 4.8 9.7 0.00 0.00 0.00 68 1013.3
20260901020807 17 297 8.0 14.5 0.00 0.00 0.00 68 1013.2
20260901020307 17 296 9.7 14.5 0.00 0.00 0.00 68 1013.2
20260901015811 18 303 8.0 14.5 0.00 0.00 0.00 67 1013.2
20260901015308 18 297 6.4 11.3 0.00 0.00 0.00 67 1013.2
20260901014808 18 298 8.0 12.9 0.00 0.00 0.00 66 1013.1
20260901014308 18 294 4.8 11.3 0.00 0.00 0.00 65 1013.1
20260901013807 18 295 8.0 12.9 0.00 0.00 0.00 64 1013.1
20260901013307 19 290 6.4 12.9 0.00 0.00 0.00 63 1013.1
20260901012808 19 291 6.4 8.0 0.00 0.00 0.00 61 1013.1
20260901012314 19 294 3.2 4.8 0.00 0.00 0.00 62 1013.2
20260901011808 20 300 6.4 14.5 0.00 0.00 0.00 61 1013.2
20260901011308 20 295 4.8 9.7 0.00 0.00 0.00 60 1013.2
20260901010808 20 340 3.2 6.4 0.00 0.00 0.00 59 1013.2
20260901010307 20 298 3.2 6.4 0.00 0.00 0.00 60 1013.2
20260901005809 20 276 3.2 6.4 0.00 0.00 0.00 60 1013.3
20260901005307 20 328 4.8 8.0 0.00 0.00 0.00 59 1013.2
20260901004810 20 333 8.0 14.5 0.00 0.00 0.00 59 1013.1
20260901004307 20 336 6.4 11.3 0.00 0.00 0.00 60 1013.1
20260901003807 20 337 8.0 11.3 0.00 0.00 0.00 59 1013.1
20260901003308 20 293 4.8 8.0 0.00 0.00 0.00 59 1013.0
20260901002808 20 354 8.0 12.9 0.00 0.00 0.00 59 1013.0
20260901002307 20 332 3.2 9.7 0.00 0.00 0.00 60 1013.0
20260901001807 21 8 8.0 14.5 0.00 0.00 0.00 58 1013.0
20260901001308 21 327 8.0 14.5 0.00 0.00 0.00 57 1012.9
20260901000807 20 281 4.8 9.7 0.00 0.00 0.00 57 1013.0
20260901000313 20 336 6.4 11.3 0.00 0.00 0.00 58 1013.0
20260831235808 20 338 8.0 11.3 0.00 0.00 0.00 58 1013.2
20260831235310 20 351 6.4 11.3 0.00 0.00 0.00 59 1013.2
20260831234807 20 358 6.4 12.9 0.00 0.00 0.00 59 1013.0
20260831234310 20 5 6.4 12.9 0.00 0.00 0.00 60 1013.1
20260831233808 21 353 11.3 17.7 0.00 0.00 0.00 58 1013.1
20260831233308 21 321 9.7 19.3 0.00 0.00 0.00 59 1013.2
20260831232344 21 319 6.4 14.5 0.00 0.00 0.00 58 1013.2
20260831231808 21 327 6.4 9.7 0.00 0.00 0.00 59 1013.2
20260831231307 21 9 12.9 17.7 0.00 0.00 0.00 58 1013.2
20260831230807 22 349 9.7 14.5 0.00 0.00 0.00 57 1013.1
20260831230307 22 10 9.7 19.3 0.00 0.00 0.00 55 1013.1
20260831225807 22 19 3.2 4.8 0.00 0.00 0.00 55 1013.2
20260831225307 21 334 6.4 9.7 0.00 0.00 0.00 57 1013.2
20260831224807 21 328 8.0 12.9 0.00 0.00 0.00 57 1013.2
20260831224307 21 13 12.9 19.3 0.00 0.00 0.00 56 1013.3
20260831223808 21 5 9.7 14.5 0.00 0.00 0.00 58 1013.3
20260831223307 21 335 9.7 19.3 0.00 0.00 0.00 57 1013.2
20260831222807 21 7 6.4 12.9 0.00 0.00 0.00 58 1013.3
20260831222306 21 333 11.3 14.5 0.00 0.00 0.00 58 1013.4
20260831221808 21 340 9.7 17.7 0.00 0.00 0.00 57 1013.5
20260831221309 21 333 8.0 11.3 0.00 0.00 0.00 57 1013.5
20260831220808 22 293 6.4 9.7 0.00 0.00 0.00 56 1013.6
20260831220307 21 287 4.8 11.3 0.00 0.00 0.00 57 1013.6
20260831215807 21 276 8.0 14.5 0.00 0.00 0.00 57 1013.7
20260831215308 22 209 6.4 9.7 0.00 0.00 0.00 57 1013.8
20260831214807 22 278 3.2 6.4 0.00 0.00 0.00 57 1013.8
20260831214307 21 327 4.8 8.0 0.00 0.00 0.00 57 1013.8
20260831213807 21 259 3.2 8.0 0.00 0.00 0.00 58 1013.9
20260831213307 22 243 3.2 6.4 0.00 0.00 0.00 56 1014.0
20260831212807 21 300 4.8 9.7 0.00 0.00 0.00 57 1014.0
20260831212307 21 312 6.4 12.9 0.00 0.00 0.00 58 1014.2
20260831211808 21 258 4.8 8.0 0.00 0.00 0.00 58 1014.2
20260831211310 21 308 8.0 14.5 0.00 0.00 0.00 58 1014.2
20260831210807 21 310 6.4 9.7 0.00 0.00 0.00 58 1014.3
20260831210308 21 309 3.2 4.8 0.00 0.00 0.00 58 1014.3
20260831205807 21 220 4.8 6.4 0.00 0.00 0.00 58 1014.3
20260831205307 21 301 3.2 9.7 0.00 0.00 0.00 58 1014.4
20260831204808 21 360 4.8 8.0 0.00 0.00 0.00 59 1014.4
20260831204308 20 273 4.8 8.0 0.00 0.00 0.00 60 1014.4
20260831203807 21 229 6.4 12.9 0.00 0.00 0.00 59 1014.4
20260831203307 20 287 3.2 6.4 0.00 0.00 0.00 62 1014.5
20260831202808 20 300 1.6 3.2 0.00 0.00 0.00 62 1014.5
20260831202307 21 7 8.0 12.9 0.00 0.00 0.00 60 1014.4
20260831201808 21 2 8.0 14.5 0.00 0.00 0.00 59 1014.5
20260831201310 21 7 8.0 11.3 0.00 0.00 0.00 59 1014.5
20260831200808 21 334 3.2 9.7 0.00 0.00 0.00 60 1014.4
20260831200308 21 283 4.8 9.7 0.00 0.00 0.00 59 1014.5
20260831195808 20 236 3.2 6.4 0.00 0.00 0.00 60 1014.5
20260831195308 20 287 3.2 6.4 0.00 0.00 0.00 61 1014.6
20260831194808 20 299 6.4 12.9 0.00 0.00 0.00 61 1014.7
20260831194308 20 40 6.4 11.3 0.00 0.00 0.00 62 1014.6
20260831193807 20 194 4.8 6.4 0.00 0.00 0.00 61 1014.7
20260831193308 20 271 4.8 8.0 0.00 0.00 0.00 62 1014.8
20260831192807 20 326 3.2 6.4 0.00 0.00 0.00 62 1014.9
20260831192308 20 82 1.6 4.8 0.00 0.00 0.00 61 1014.8
20260831191807 20 286 6.4 14.5 0.00 0.00 0.00 62 1014.9
20260831191307 20 293 6.4 8.0 0.00 0.00 0.00 62 1014.9
20260831190808 20 336 6.4 11.3 0.00 0.00 0.00 62 1014.9
20260831190308 19 25 1.6 3.2 0.00 0.00 0.00 63 1014.9
20260831185807 19 343 4.8 8.0 0.00 0.00 0.00 64 1014.9
20260831185307 19 303 3.2 6.4 0.00 0.00 0.00 64 1014.9
20260831184808 19 276 6.4 12.9 0.00 0.00 0.00 64 1015.0
20260831184308 18 338 4.8 9.7 0.00 0.00 0.00 67 1015.0
20260831183809 18 297 9.7 17.7 0.00 0.00 0.00 66 1015.1
20260831183307 18 251 4.8 11.3 0.00 0.00 0.00 66 1015.1
20260831182807 18 305 11.3 17.7 0.00 0.00 0.00 68 1015.1
20260831182308 18 275 6.4 11.3 0.00 0.00 0.00 67 1015.2
20260831181808 18 271 4.8 6.4 0.00 0.00 0.00 66 1015.2
20260831181307 18 239 4.8 6.4 0.00 0.00 0.00 66 1015.1
20260831180807 18 297 9.7 16.1 0.00 0.00 0.00 68 1015.1
20260831180308 18 289 9.7 16.1 0.00 0.00 0.00 67 1015.2